Location: Newcastle
(43.9170°N, 78.5830°W)
Time: 00:33:26
(UTC-05:00)

Daily predictions for brighter satellites

Satellite Brightness Start Highest point End
(mag) Time Altitude Azimuth Time Altitude Azimuth Time Altitude Azimuth
Cosmos 1980 Rocket 4.4 03:59:54 17° NE 04:00:44 18° NE 04:04:29 10° E
SJ 16-02 4.1 04:08:49 16° E 04:08:49 16° E 04:10:24 10° ESE
USA 234 3.3 04:18:56 10° ESE 04:24:58 74° E 04:24:58 74° E
Lacrosse 5 rocket 3.5 04:29:41 27° E 04:29:41 27° E 04:32:08 10° ESE
Cosmos 2369 4.3 04:33:30 53° SE 04:33:30 53° SE 04:37:55 10° SSE
SeaSat 1 4.2 04:28:25 10° NNE 04:30:26 25° NE 04:30:26 25° NE
Cosmos 2278 4.2 04:36:05 58° ESE 04:36:05 58° ESE 04:40:46 10° SSE
Cosmos 1634 Rocket 4.0 04:40:46 81° ENE 04:40:50 81° E 04:47:11 10° S
Cosmos 1656 4.0 04:44:11 60° ESE 04:44:11 60° ESE 04:48:44 10° SSE
NOSS 3-4 (A) 3.7 04:52:08 65° SW 04:52:08 65° SW 04:59:32 10° SSE
NOSS 3-4 (C) 3.7 04:52:11 66° WSW 04:52:11 66° WSW 04:59:39 10° SSE
Cosmos 44 Rocket 4.4 04:54:51 27° SSE 04:56:43 40° ESE 05:01:07 10° NE
Cosmos 540 Rocket 3.5 04:59:17 78° ESE 04:59:17 78° ESE 05:04:27 10° NNE
Cosmos 2082 Rocket 2.4 05:00:21 18° SSW 05:04:40 71° ESE 05:10:22 10° NNE
Cosmos 1697 Rocket 2.7 05:05:47 53° N 05:07:08 77° ENE 05:12:44 10° SSE
Cosmos 372 Rocket 3.8 05:07:41 81° N 05:07:56 86° ENE 05:13:01 10° SSE
CZ-2C R/B 4.2 05:10:01 10° NNE 05:14:26 32° E 05:18:40 10° SSE
Cosmos 1833 Rocket 2.5 05:16:11 23° SSW 05:19:46 86° WNW 05:25:25 10° NNE
SKYMED 2 3.7 05:16:05 10° SSE 05:20:24 74° ENE 05:21:39 45° N
CZ-4B R/B 4.0 05:19:55 10° N 05:23:35 36° NNW 05:23:35 36° NNW
Cosmos 836 Rocket 4.4 05:25:30 50° WSW 05:26:41 65° WNW 05:31:54 10° NNE
Cosmos 1536 3.9 05:25:51 10° SSE 05:29:45 47° E 05:33:39 10° NNE
Feng Yun 1-1 Rocket 4.3 05:24:28 10° NNE 05:30:23 84° ESE 05:36:07 10° SSW
NOAA 6 4.0 05:27:25 10° NNE 05:32:35 88° ESE 05:37:42 10° SSW
USA 267 3.8 05:26:45 10° NE 05:32:40 38° NNW 05:34:15 33° NW
Meteor 1-13 Rocket 4.2 05:27:49 11° N 05:33:32 86° WSW 05:39:28 10° S
Meteor 1-11 Rocket 3.9 05:31:56 10° S 05:37:52 81° E 05:43:47 10° NNE
IDEFIX/ARIANE 42P 2.7 05:32:47 10° NNE 05:38:00 73° ESE 05:43:13 10° S
Cosmos 2151 Rocket 3.6 05:34:33 10° S 05:38:56 78° E 05:43:21 10° N
PAYLOAD A 4.2 05:36:16 10° NNE 05:41:45 83° ESE 05:47:09 10° SSW
Cosmos 44 2.9 05:43:32 42° WSW 05:44:51 66° NW 05:49:14 10° NNE
Cosmos 1980 Rocket 2.1 05:41:43 22° NNW 05:45:34 90° WSW 05:51:15 10° SSE
SJ 16-02 1.6 05:45:52 43° W 05:45:55 43° WSW 05:50:07 10° S
Okean 2 Rocket 3.4 05:43:30 10° SSW 05:47:48 44° WNW 05:52:09 10° N
Okean-O 2.5 05:43:57 10° N 05:48:23 68° WNW 05:52:46 10° SSW
Cosmos 292 Rocket 3.9 05:48:57 18° SW 05:52:15 48° WNW 05:56:52 10° N
Meteor 2-4 Rocket 3.5 05:46:56 10° NNW 05:52:20 77° W 05:57:48 10° S
Cosmos 2279 Rocket 4.2 05:48:05 10° NNW 05:54:01 47° W 05:59:55 10° SSW
Meteor 2-20 Rocket 4.5 05:48:18 10° S 05:54:25 85° E 06:00:33 10° N
RESURS DK-1 2.3 05:53:09 27° NNW 05:55:23 83° ENE 05:59:32 10° SSE
CZ-4 R/B 4.2 05:56:01 10° NE 05:59:15 22° E 06:02:31 10° SE
SJ-12 4.5 05:55:29 10° NNE 05:59:32 60° E 06:03:32 10° S
Cosmos 1300 Rocket 3.5 05:56:51 10° S 06:01:09 83° E 06:05:29 10° N
Cosmos 783 Rocket 4.5 05:57:33 10° SSW 06:02:47 62° WNW 06:08:04 10° NNE
Cosmos 1536 Rocket 3.5 05:59:35 14° NNW 06:03:13 63° W 06:07:30 10° S
Cosmos 1515 4.3 06:01:53 10° N 06:05:40 56° E 06:09:25 10° SSE
Cosmos 1125 Rocket 4.4 06:05:45 26° W 06:06:40 27° W 06:10:59 10° SSW
Lacrosse 5 rocket 2.2 06:05:24 29° W 06:07:06 40° SW 06:11:19 10° SSE
COSMO-SKYMED 1 3.2 06:04:37 10° SSW 06:08:33 34° W 06:10:14 25° NW
USA 234 4.1 06:03:10 10° S 06:08:53 32° SW 06:12:20 20° W
BREEZE-M DEB (TANK) 3.5 06:07:11 27° W 06:08:55 58° SSW 06:15:10 10° SE
Meteor 1-4 Rocket 3.9 06:05:46 10° SSE 06:09:21 44° E 06:12:59 10° NNE
SeaSat 1 3.8 06:06:53 10° N 06:10:14 20° NW 06:10:14 20° NW
Okean 2 3.9 06:09:16 10° N 06:13:19 59° E 06:17:21 10° SSE
Cosmos 2360 4.3 06:10:06 15° NW 06:14:43 58° WSW 06:20:18 10° S
Cosmos 1484 Rocket 3.8 06:11:40 10° NNE 06:15:31 50° E 06:19:16 10° S
Thor Agena Rocket 3.5 06:12:45 10° SSE 06:17:47 90° WSW 06:22:53 10° NNW
Cosmos 1025 Rocket 3.3 06:14:26 10° N 06:18:42 70° E 06:22:57 10° SSE
SL-16 R/B 2.7 06:13:08 10° NNW 06:18:45 60° ENE 06:24:21 10° SE
Cosmos 773 Rocket 4.3 06:14:06 10° S 06:19:11 70° ESE 06:24:20 10° NNE
Cosmos 1184 Rocket 4.2 06:20:53 10° N 06:24:02 39° ENE 06:27:10 10° SSE
COSMOS 2487 4.0 06:25:09 18° NW 06:25:09 18° NW 06:26:54 10° NNW
Okean 1 Rocket 3.0 06:22:39 10° S 06:27:01 83° W 06:31:26 10° N
Cosmos 2322 Rocket 2.5 06:22:19 10° NNW 06:27:59 69° ENE 06:33:39 10° SSE
GEOS 3 Rocket 3.7 06:26:36 10° NNE 06:31:58 65° NW 06:37:16 10° SW
ATLAS 5 CENTAUR R/B 4.3 06:29:55 10° N 06:32:44 14° NNE 06:35:40 10° NE
Meteor 1-5 Rocket 4.2 06:27:31 10° SSW 06:32:54 54° WNW 06:38:11 10° N
MSX 3.8 06:27:26 10° N 06:33:07 63° WNW 06:38:45 10° SSW
Cosmos 1437 Rocket 3.3 06:32:01 10° SW 06:35:42 35° WNW 06:39:21 10° N
Cosmos 1538 Rocket 3.9 06:30:57 10° SSW 06:36:08 70° WNW 06:41:26 10° NNE
Cosmos 44 Rocket 4.0 06:34:12 10° WSW 06:38:20 30° NW 06:42:31 10° NNE
Meteor 2-11 Rocket 4.4 06:35:48 10° NNW 06:41:55 76° W 06:47:58 10° S
Cosmos 1975 3.4 06:39:19 10° S 06:43:15 61° E 06:47:11 10° NNE
CSL-04 Rocket 3.8 06:39:42 10° NNE 06:45:18 90° SE 06:50:51 10° SSW
Cosmos 1892 Rocket 4.3 06:43:01 10° N 06:47:23 56° ENE 06:51:40 10° SSE
YAOGAN 1 3.7 06:43:13 10° NNE 06:47:26 49° E 06:51:37 10° S
Nadezhda 4 Rocket 4.4 06:42:40 10° SW 06:48:18 37° WNW 06:53:57 10° N
Cosmos 2082 Rocket 3.4 06:45:01 10° W 06:49:20 21° NW 06:53:39 10° N
Cosmos 1697 Rocket 4.2 06:47:34 11° WNW 06:50:21 16° W 06:53:31 10° SW
Timation 2 Rocket 4.3 06:45:36 10° SW 06:52:21 59° WNW 06:59:10 10° NNE
CZ-2C R/B 3.1 06:48:18 10° N 06:52:36 31° WNW 06:56:47 10° SW
Cosmos 1271 Rocket 4.3 06:58:25 10° SSE 07:01:58 40° E 07:05:31 10° NNE
Cosmos 1833 Rocket 4.1 07:01:04 10° W 07:04:34 17° NW 07:08:05 10° N
Cosmos 2333 Rocket 4.4 07:00:43 10° N 07:04:40 18° NE 07:08:35 10° E
Cosmos 1536 4.5 07:04:10 10° WSW 07:06:28 15° WNW 07:08:45 10° NW
CZ-4C R/B 2.2 07:01:30 10° SW 07:06:42 62° NW 07:12:44 10° NNE
COSMOS 2428 4.3 07:02:42 10° N 07:07:43 30° NE 07:12:42 10° ESE
S3M 4.1 07:01:45 10° N 07:07:57 83° E 07:14:11 10° S
Cosmos 1500 3.8 07:04:27 10° SW 07:08:01 35° WNW 07:11:36 10° N
Okean 1-7 Rocket 4.0 07:04:43 10° NNW 07:09:01 44° W 07:13:19 10° SSW
OE (NEXTSAT) 4.4 07:05:56 10° WNW 07:09:30 84° NNE 07:13:04 10° ESE
SMAP 3.2 07:06:50 10° N 07:11:22 51° WNW 07:15:52 10° SSW
